Raleigh International Airport Airport (RDU)

 

Airport Diagram
Current Weather/Forecast (MVFR Conditions)
METAR KRDU 241651Z 05011G15KT 10SM BKN017 OVC034 22/18 A3013 RMK AO2 SLP199 T02170183
TAF KRDU 241157Z 2412/2512 03008KT P6SM SCT008 OVC020 TEMPO 2412/2414 4SM -DZ BR OVC006 FM241500 04006KT P6SM VCSH OVC030 FM242000 04006KT P6SM OVC035

All Charts
General
Chart Name Download
AIRPORT DIAGRAM
TAKEOFF MINIMUMS
DIVERSE VECTOR AREA
ALTERNATE MINIMUMS
HOT SPOT

Departures
Chart Name Download
BEXGO THREE (RNAV)
BLUE DEVIL SIX
FAYETTEVILLE FOUR
HOOKZ THREE (RNAV)
HURIC THREE (RNAV)
LWOOD THREE (RNAV)
OXFRD THREE (RNAV)
PACKK EIGHT
RALEIGH NINE
RALEIGH NINE, CONT.1
ROZBO THREE (RNAV)
SHPRD THREE (RNAV)
TAR HEEL ONE

Arrivals
Chart Name Download
ALDAN TWO (RNAV)
ALDAN TWO (RNAV), CONT.1
ARGAL SIX
BLOGS TWO (RNAV)
BRADE SIX
BUZZY EIGHT
KAROO TWO (RNAV)
KAROO TWO (RNAV), CONT.1
MALNR FOUR (RNAV)
MALNR FOUR (RNAV), CONT.1
SOUTH BOSTON SIX

Approaches
Chart Name Download
ILS OR LOC RWY 05L
ILS OR LOC RWY 05R
ILS OR LOC RWY 23L
ILS OR LOC RWY 23R
ILS RWY 05R (SA CAT I - II)
ILS RWY 23R (CAT II - III)
RNAV (RNP) Z RWY 05L
RNAV (RNP) Z RWY 05R
RNAV (RNP) Z RWY 23L
RNAV (RNP) Z RWY 23R
RNAV (GPS) RWY 32
RNAV (GPS) Y RWY 05L
RNAV (GPS) Y RWY 05R
RNAV (GPS) Y RWY 23L
RNAV (GPS) Y RWY 23R
VOR RWY 05R
VOR RWY 23L
VOR RWY 32


Inbound Traffic (Arrivals)

No inbound traffic.


Outbound Traffic (Departures)

No outbound traffic.